E3891 Weather Reports


time (UTC)temp
F
wind
direction
speed
knots
gust
knots
rain 1hr
in
rain 24hr
in
rain mn
in
humidity
%
barometer
mb
20260504081923 51 359 0.0 0.0 0.00 2.30 0.00 61 1000.6
20260504081647 34 86 0.0 0.0 0.00 2.30 0.00 60 1000.4
20260504081232 51 66 0.0 0.0 0.00 2.30 0.00 62 1000.5
20260504080810 51 60 0.0 0.0 0.00 2.30 0.00 62 1000.7
20260504070134 53 143 0.0 0.0 0.00 2.30 0.00 59 1001.2
20260504050537 58 350 0.0 0.0 2.26 2.30 0.00 49 1002.2
20260504050014 58 349 2.6 0.0 2.26 2.30 1.65 48 1002.3
20260504045512 59 349 0.0 0.0 2.26 2.30 1.65 47 1002.2
20260504045009 60 3 0.0 0.0 1.93 1.97 1.65 46 1002.4
20260504044509 262 348 0.0 0.0 1.93 1.97 1.65 47 1002.5
20260504044334 58 348 0.0 0.0 1.60 1.64 1.65 47 1002.8
20260504043525 60 347 0.0 0.0 1.60 1.64 1.65 46 1002.7
20260504043029 34 341 0.0 0.0 1.28 1.32 1.65 45 1002.5
20260504042528 60 306 0.0 0.0 9.59 9.99 1.65 44 1002.7
20260504042028 60 313 0.0 0.0 3.17 3.57 1.65 45 1003.1
20260504041517 60 326 0.0 0.0 3.17 3.57 1.65 45 1002.9
20260504041022 59 344 0.0 0.0 3.17 3.57 1.65 46 1002.8
20260504040509 60 330 0.0 0.0 0.00 0.41 1.65 45 1002.9
20260504040008 60 326 0.0 0.0 0.00 0.41 1.65 44 1002.8
20260504035900 61 349 0.0 3.5 0.00 0.41 1.65 44 1003.1
20260504035646 0 303 0.0 0.0 0.00 0.41 1.65 1003.0
20260504035531 60 328 0.0 3.5 0.00 0.41 1.65 100 1003.1
20260504035104 60 342 0.0 3.5 0.00 0.41 1.65 45 1003.1
20260504034520 60 346 0.0 3.5 0.00 0.41 1.65 45 1003.1
20260504033739 61 334 0.0 3.5 0.00 0.41 1.65 43 1002.9
20260504033512 61 333 0.0 3.5 0.00 0.41 1.65 44 1003.2
20260504032508 62 315 0.0 3.5 0.00 0.41 1.65 43 1002.9
20260504031943 62 338 0.0 0.0 0.00 0.41 1.65 100 1002.8
20260504031000 63 18 0.0 0.0 0.00 0.41 1.65 41 1003.1
20260504030505 63 316 0.0 3.5 0.00 0.41 1.62 41 1003.1
20260504030205 64 339 3.5 0.9 0.00 0.41 1.50 41 1002.9
20260504030002 63 314 0.0 3.5 0.00 0.41 1.57 41 1003.0
20260504025847 65 322 0.9 3.5 0.07 0.41 1.47 39 1002.7
20260504025509 63 305 0.0 3.5 0.00 0.41 1.54 41 1002.9
20260504025032 63 334 0.0 0.0 0.00 0.41 1.54 41 1002.8
20260504024036 64 330 0.0 3.5 0.00 0.41 1.47 40 1002.9
20260504023000 64 325 0.0 2.6 0.07 0.41 1.47 40
20260504022458 64 291 1.7 3.5 0.13 0.41 1.47 40
20260504021958 65 284 0.0 3.5 0.13 0.41 1.47 38 1002.5
20260504021802 66 284 0.9 6.1 0.13 0.41 1.44 36 1002.2
20260504021509 66 276 0.0 6.1 0.13 0.41 1.47 37 1002.5
20260504021045 66 279 0.9 6.1 0.13 0.41 1.47 37 1002.7
20260504020000 66 276 0.0 5.2 0.13 0.41 1.44 35 1002.2
20260504015844 67 287 1.7 5.2 0.13 0.41 1.41 34 1002.2
20260504015459 67 278 2.6 7.0 0.13 0.41 1.44 35 1002.4
20260504015034 67 269 1.7 7.0 0.13 0.41 1.44 35 1002.1
20260504014004 67 327 0.0 2.6 0.13 0.41 1.41 33 1002.0
20260504013459 67 334 0.0 0.0 0.06 0.33 1.34 34 1002.0
20260504012959 67 294 0.0 3.5 0.06 0.33 1.34 34 1002.2
20260504012850 69 306 0.0 6.1 0.00 0.28 1.22 32
20260504012508 68 285 0.0 6.1 0.00 0.28 1.22 33
20260504011500 69 313 4.3 6.1 0.00 0.28 1.19 31
20260504010959 69 342 2.6 7.8 0.00 0.28 1.13 31
20260504010505 70 312 3.5 7.8 0.00 0.28 1.10 30
20260504010002 70 15 3.5 7.8 0.00 0.28 1.10 31
20260504005902 71 331 3.5 12.2 0.00 0.28 1.07 29
20260504005515 70 335 0.9 12.2 0.00 0.28 1.10 30
20260504004502 71 290 4.3 13.0 0.00 0.28 1.05 29
20260504004002 72 304 7.8 13.0 0.00 0.28 1.04 28
20260504003458 72 296 1.7 13.0 0.00 0.28 1.04 29
20260504003245 73 287 6.1 13.9 0.00 0.28 8.72 27
20260504002957 72 292 7.0 14.8 0.00 0.28 1.04 28
20260504002520 72 298 5.2 14.8 0.00 0.28 9.89 28
20260504001449 73 281 7.8 13.9 0.00 0.28 8.72 29
20260504000946 73 279 9.6 13.0 0.00 0.28 8.47 27 1001.7
20260504000453 73 274 7.0 13.9 0.00 0.28 8.41 28 1001.7
20260503235945 73 41 8.7 13.9 0.00 0.28 8.41 27 1001.8
20260503235451 74 317 7.0 13.9 0.00 0.28 8.41 28 1001.5
20260503234953 74 318 0.9 13.9 0.00 0.28 8.41 28 1001.8
20260503234451 74 341 0.0 12.2 0.00 0.28 8.41 30 1001.6
20260503233934 74 327 6.1 15.6 0.00 0.28 8.41 29 1001.5
20260503233456 74 345 11.3 15.6 0.00 0.28 8.41 28 1001.7
20260503232942 74 323 9.6 13.9 0.00 0.28 8.41 28 1001.4
20260503232440 74 326 8.7 99.9 0.00 0.28 8.41 28
20260503231926 74 339 7.0 99.9 0.00 0.28 8.41 29 1001.4
20260503231430 74 331 10.4 14.8 0.00 0.28 8.15 100 1001.4
20260503230922 74 320 7.8 14.8 0.00 0.28 8.15 29
20260503230423 74 298 5.2 13.9 0.00 0.28 8.15 28
20260503225936 74 347 2.6 20.0 0.00 0.28 8.15 29
20260503225424 74 327 2.6 20.0 0.00 0.28 8.15 28
20260503224921 74 339 2.6 18.2 0.00 0.28 8.15 30
20260503224423 74 13 6.1 20.0 0.00 0.28 8.15 29 1001.7
20260503223928 74 333 13.9 20.0 0.00 0.28 8.15 29 1001.7
20260503223421 75 341 6.1 19.1 0.00 0.28 7.89 29
20260503222921 74 315 9.6 19.1 0.00 0.28 7.89 29
20260503222433 74 311 15.6 23.5 0.00 0.28 7.89 29
20260503222332 74 296 10.4 19.1 0.05 0.28 6.93 28
20260503221931 74 13 7.8 23.5 0.00 0.28 7.89 29
20260503221421 75 270 9.6 21.7 0.00 0.28 7.64 31
20260503221233 75 269 12.2 21.7 0.05 0.28 6.93 29
20260503220944 74 289 5.2 18.2 0.05 0.28 7.20 29
20260503220414 75 312 14.8 21.7 0.05 0.28 7.20 29
20260503214851 75 290 13.0 25.2 0.10 0.28 6.65 29
20260503214410 75 293 11.3 25.2 0.10 0.28 6.65 29
20260503213840 75 294 12.2 19.1 0.10 0.28 5.96 29
20260503213706 75 343 7.8 20.0 0.16 0.28 5.41 30
20260503213348 75 275 11.3 19.1 0.10 0.28 5.41 29
20260503212402 75 311 9.6 20.0 0.16 0.28 5.41 30
20260503211837 75 307 7.8 22.6 0.16 0.28 5.41 29
20260503211333 75 313 15.6 22.6 0.16 0.28 5.41 29
20260503210830 75 273 13.9 21.7 0.16 0.22 5.16 29
20260503210331 75 302 11.3 21.7 0.16 0.22 4.41 29
20260503205842 75 286 13.0 20.9 0.22 0.22 4.41 27
20260503205310 74 246 12.2 22.6 0.22 0.22 4.41 29
20260503204956 75 313 13.9 19.1 0.12 0.12 2.18 31
20260503204831 75 266 2.6 22.6 0.17 0.17 3.39 30
20260503204736 75 309 2.6 22.6 0.17 0.17 3.39 29
20260503204638 75 296 11.3 22.6 0.12 0.12 3.11 29
20260503204357 75 12 11.3 19.1 0.17 0.17 3.39 29
20260503202839 75 287 13.9 19.1 0.12 0.12 2.56 29
20260503202306 74 271 11.3 19.1 0.12 0.12 2.56 33
20260503201234 75 245 11.3 18.2 0.12 0.12 1.69 33
20260503200747 75 286 8.7 16.5 0.06 0.06 1.57 33
20260503200233 74 327 11.3 20.9 0.06 0.06 1.39 33
20260503195748 74 331 12.2 20.9 0.00 0.00 0.94 33
20260503140247 53 152 5.2 12.2 0.00 7.97 0.77 59 1006.3
20260503131120 53 164 5.2 11.3 0.00 7.97 0.77 58 1006.7
20260503110535 52 166 0.9 6.1 0.00 1.71 0.77 57 1007.7